Simultaneous Nadir Overpasses (SNOs) Predictions

Prediction of SNOs between GOES-16 and METOP-B Satellite Orbit:

Table of predicted SNOs for the next 14.0 days since TLE Epoch: 11/16/2019
Index Date Time (GOES-16) GOES-16 Lat,Lon METOP-B Lat,Lon Distance(km) Time Diff (sec)
1 11/16/2019 14:26:46 -0.01, -75.21 -0.30, -73.95 143.27 80
2 11/18/2019 02:43:06 -0.02, -75.19 -0.75, -78.54 381.20 80
3 11/19/2019 02:22:27 -0.03, -75.19 0.33, -73.54 188.31 80
4 11/20/2019 14:41:20 0.03, -75.22 0.66, -78.11 328.82 80
5 11/21/2019 14:23:21 0.03, -75.22 -0.42, -73.10 241.06 80
6 11/23/2019 02:42:22 -0.04, -75.22 -0.56, -77.71 282.88 80
7 11/24/2019 02:19:02 -0.04, -75.23 0.52, -72.70 287.32 80
8 11/25/2019 14:37:56 0.03, -75.26 0.47, -77.27 228.85 80
9 11/26/2019 14:19:56 0.03, -75.27 -0.61, -72.27 341.67 80
10 11/28/2019 02:36:17 -0.04, -75.28 -0.37, -76.87 181.34 80
11 11/29/2019 02:18:18 -0.04, -75.29 0.71, -71.87 389.54 80




NCC Satellite Simultaneous Nadir Overpasses (SNOs) Prediction Service
